Stations météo

réclame
Mon MeteoGroup
Marseille/Marignane, France (7650): Température de l'air & dewpoint: 10.07.2019 04:00:00 - 16.07.2019 04:00:00 (CEST)Marseille/Marignane, France (7650): Température de l'air 5cm: 10.07.2019 04:00:00 - 16.07.2019 04:00:00 (CEST)Marseille/Marignane, France (7650): Température de l'air -20cm & Température de l'air -100cm: 10.07.2019 04:00:00 - 16.07.2019 04:00:00 (CEST)Marseille/Marignane, France (7650): Vitesse du vent & gusts: 10.07.2019 04:00:00 - 16.07.2019 04:00:00 (CEST)Marseille/Marignane, France (7650): Direction du vent: 10.07.2019 04:00:00 - 16.07.2019 04:00:00 (CEST)Marseille/Marignane, France (7650): reduced air pressure: 10.07.2019 04:00:00 - 16.07.2019 04:00:00 (CEST)Marseille/Marignane, France (7650): visibility: 10.07.2019 04:00:00 - 16.07.2019 04:00:00 (CEST)Marseille/Marignane, France (7650): Ensoleillement: 10.07.2019 04:00:00 - 16.07.2019 04:00:00 (CEST)Marseille/Marignane, France (7650): Quantités de précipitations: 10.07.2019 04:00:00 - 16.07.2019 04:00:00 (CEST)
Date & Time tt [°C] td [°C] tt 5cm [°C] tt -20cm [°C] tt -100cm [°C] ff [km/h] ff [knt] fx [km/h] fx [knt] dd ppp [hPa] vv [km] sd [min] rr [mm]
16.07.2019 04:00:00 19,6 15,7 15,6 27,7 22,9 5 3 11 6 E 1013,2 47 0 0,0
16.07.2019 03:00:00 19,3 15,8 16,3 28,1 22,9 9 5 11 6 SE 1013,3 47 0 0,0
16.07.2019 02:00:00 19,1 16,0 17,3 28,4 22,9 11 6 18 10 SE 1013,3 45 0 0,0
16.07.2019 01:00:00 20,1 16,3 18,9 28,8 22,9 13 7 19 10 SE 1013,0 44 0 0,0
16.07.2019 00:00:00 21,2 15,7 20,4 29,1 22,9 10 6 25 14 S 1013,0 47 0 0,0
15.07.2019 23:00:00 21,4 15,2 20,7 29,5 22,9 18 10 32 18 S 1012,7 50 0 0,0
15.07.2019 22:00:00 22,0 14,9 21,5 29,8 22,9 16 8 35 19 S 1011,7 23 0 0,0
15.07.2019 21:00:00 23,0 14,3 23,5 30,0 22,8 19 10 49 26 S 1010,6 53 53 0,0
15.07.2019 20:00:00 26,1 12,9 29,8 30,0 22,8 15 8 76 41 ENE 1009,8 44 60 0,0
15.07.2019 19:00:00 28,8 12,7 32,4 30,0 22,9 35 19 59 32 NNW 1008,4 20 60 0,0
15.07.2019 18:00:00 29,0 12,4 30,1 29,8 22,9 33 18 53 29 NNW 1008,0 17 57 0,0
15.07.2019 17:00:00 27,7 12,1 29,7 29,6 22,9 44 24 56 31 NNW 1007,8 18 27 0,0
15.07.2019 16:00:00 28,2 12,1 30,5 29,2 22,9 43 23 62 34 NNW 1007,4 15 35 0,0
15.07.2019 15:00:00 27,9 12,3 32,5 28,7 22,8 44 24 66 35 NW 1006,9 16 60 0,0
15.07.2019 14:00:00 27,7 12,5 31,3 28,3 22,8 38 21 61 33 NW 1006,9 17 60 0,0
15.07.2019 13:00:00 25,6 11,4 29,8 27,8 22,8 44 24 66 36 NW 1007,4 18 60 0,0
15.07.2019 12:00:00 24,6 11,9 28,1 27,5 22,8 45 24 71 38 NNW 1007,3 19 60 0,0
15.07.2019 11:00:00 23,8 11,5 26,9 27,4 22,8 44 24 60 33 NNW 1007,3 20 60 0,0
15.07.2019 10:00:00 22,8 12,4 25,5 27,4 22,8 42 23 62 33 NNW 1008,0 22 60 0,0
15.07.2019 09:00:00 21,9 11,9 22,7 27,6 22,8 31 17 67 36 NNW 1007,8 21 60 0,0
15.07.2019 08:00:00 20,8 12,2 21,0 27,9 22,8 44 24 64 35 NNW 1007,8 24 60 0,0
15.07.2019 07:00:00 20,3 11,8 19,8 28,2 22,8 50 27 68 37 NNW 1007,3 23 24 0,0
15.07.2019 06:00:00 20,4 11,3 20,1 28,6 22,8 40 22 63 34 NNW 1007,6 59 0 0,0
15.07.2019 05:00:00 21,1 12,0 20,6 29,0 22,8 42 23 61 33 NW 1007,5 57 0 0,0
15.07.2019 04:00:00 21,7 12,0 21,3 29,3 22,8 40 22 61 33 NNW 1007,4 54 0 0,0
15.07.2019 03:00:00 22,6 12,5 22,2 29,7 22,8 40 22 66 36 NW 1007,6 55 0 0,0
15.07.2019 02:00:00 23,7 12,0 23,3 30,1 22,8 43 23 60 33 NW 1007,7 53 0 0,0
15.07.2019 01:00:00 24,8 12,4 24,4 30,5 22,8 40 22 56 30 NNW 1007,7 55 0 0,0
15.07.2019 00:00:00 25,9 10,9 24,7 31,0 22,8 34 18 47 25 NW 1008,0 60 0 0,0
14.07.2019 23:00:00 26,0 9,8 25,4 31,4 22,8 29 15 38 21 WNW 1008,1 16 0 0,0
14.07.2019 22:00:00 26,9 10,1 26,2 31,8 22,8 23 13 45 25 WNW 1007,7 49 0 0,0
14.07.2019 21:00:00 29,1 10,2 29,0 32,2 22,8 26 14 46 25 NW 1007,3 58 54 0,0
14.07.2019 20:00:00 29,4 14,8 31,5 32,3 22,8 12 6 30 16 WSW 1007,2 37 60 0,0
14.07.2019 19:00:00 30,5 13,3 34,3 32,2 22,8 20 11 34 19 SSW 1007,1 42 60 0,0
14.07.2019 18:00:00 31,0 14,2 36,0 31,9 22,8 22 12 34 18 SSW 1007,0 40 60 0,0
14.07.2019 17:00:00 31,5 14,6 37,5 31,4 22,8 22 12 35 19 S 1007,3 40 60 0,0
14.07.2019 16:00:00 31,4 15,0 38,5 30,6 22,8 23 12 35 19 SSW 1007,6 41 60 0,0
14.07.2019 15:00:00 31,7 12,5 38,6 29,8 22,8 13 7 18 10 W 1007,9 46 60 0,0
14.07.2019 14:00:00 31,0 13,3 37,4 28,9 22,8 13 7 22 12 WNW 1008,1 47 60 0,0
14.07.2019 13:00:00 30,1 13,8 35,9 28,1 22,8 17 9 23 12 W 1008,6 49 60 0,0
14.07.2019 12:00:00 28,9 13,9 34,4 27,5 22,8 17 9 21 12 W 1009,0 53 60 0,0
14.07.2019 11:00:00 28,1 11,6 32,7 27,0 22,8 10 6 18 10 W 1009,5 56 60 0,0
14.07.2019 10:00:00 26,1 11,4 30,0 26,8 22,8 10 5 25 14 WNW 1009,9 52 60 0,0
14.07.2019 09:00:00 24,3 11,6 26,7 26,9 22,8 9 5 19 11 N 1010,1 40 60 0,0
14.07.2019 08:00:00 22,3 10,8 23,0 27,1 22,7 13 7 39 21 N 1009,9 44 60 0,0
14.07.2019 07:00:00 21,4 10,5 16,3 27,4 22,7 11 6 19 10 N 1010,0 50 25 0,0
14.07.2019 06:00:00 18,9 9,4 16,8 27,8 22,7 9 5 16 9 N 1010,1 44 0 0,0
14.07.2019 05:00:00 21,5 10,3 19,2 28,1 22,8 12 7 19 10 N 1010,2 57 0 0,0
14.07.2019 04:00:00 22,5 10,0 18,6 28,5 22,7 10 5 19 10 NNW 1010,3 60 0 0,0
14.07.2019 03:00:00 22,8 9,2 20,8 28,9 22,8 16 9 28 15 N 1010,3 60 0 0,0
14.07.2019 02:00:00 24,1 9,7 23,2 29,2 22,7 21 12 41 22 N 1010,5 60 0 0,0
14.07.2019 01:00:00 24,9 9,6 23,9 29,6 22,7 24 13 38 20 NW 1010,9 60 0 0,0
14.07.2019 00:00:00 25,7 9,9 25,0 29,9 22,7 29 16 45 24 NNW 1010,9 60 0 0,0
13.07.2019 23:00:00 26,4 10,1 25,7 30,3 22,7 30 16 51 28 NW 1011,5 60 0 0,0
13.07.2019 22:00:00 27,3 10,1 26,5 30,6 22,7 33 18 63 34 NW 1011,3 60 0 0,0
13.07.2019 21:00:00 28,7 8,9 28,7 30,9 22,7 44 24 67 36 NNW 1010,1 31 54 0,0
13.07.2019 20:00:00 29,8 7,1 31,4 31,1 22,7 46 25 75 41 NNW 1010,0 16 60 0,0
13.07.2019 19:00:00 30,8 5,2 33,4 31,1 22,7 49 26 70 38 NW 1010,1 13 60 0,0
13.07.2019 18:00:00 31,5 5,8 34,8 30,9 22,7 50 27 77 42 NNW 1010,1 12 60 0,0
13.07.2019 17:00:00 31,9 9,4 36,0 30,6 22,7 49 26 70 38 NW 1010,7 13 60 0,0
13.07.2019 16:00:00 31,4 7,8 36,3 30,1 22,7 49 26 75 40 NW 1010,8 12 60 0,0
13.07.2019 15:00:00 31,3 10,1 36,2 29,5 22,7 44 24 67 36 NW 1011,3 13 60 0,0
13.07.2019 14:00:00 30,7 11,1 35,7 29,0 22,7 48 26 68 37 NNW 1011,8 14 60 0,0
13.07.2019 13:00:00 30,6 11,5 34,8 28,5 22,7 49 27 65 35 NW 1012,0 15 60 0,0
13.07.2019 12:00:00 29,3 12,3 33,1 28,1 22,7 41 22 64 35 NNW 1012,5 15 60 0,0
13.07.2019 11:00:00 28,8 13,5 31,6 27,9 22,7 45 24 67 36 NW 1012,4 15 60 0,0
13.07.2019 10:00:00 28,0 12,8 29,8 27,9 22,7 46 25 61 33 NNW 1012,5 16 60 0,0
13.07.2019 09:00:00 26,6 14,4 27,3 27,9 22,7 40 22 59 32 NW 1012,8 16 60 0,0
13.07.2019 08:00:00 25,6 15,0 25,7 28,1 22,7 41 22 57 31 NW 1012,7 18 60 0,0
13.07.2019 07:00:00 25,1 14,5 24,5 28,4 22,7 35 19 53 28 NNW 1012,4 19 26 0,0
13.07.2019 06:00:00 25,1 14,5 24,4 28,7 22,7 39 21 53 28 NNW 1012,0 50 0 0,0
13.07.2019 05:00:00 25,4 13,9 24,6 29,0 22,7 25 13 42 23 NNW 1011,8 58 0 0,0
13.07.2019 04:00:00 26,0 14,1 25,0 29,3 22,7 27 15 40 22 NW 1012,2 60 0 0,0
13.07.2019 03:00:00 26,0 13,5 25,0 29,7 22,7 21 11 34 18 NW 1012,5 60 0 0,0
13.07.2019 02:00:00 26,4 13,8 24,4 30,0 22,7 24 13 33 18 NW 1012,6 60 0 0,0
13.07.2019 01:00:00 27,1 14,1 23,2 30,4 22,7 11 6 22 12 NW 1012,5 60 0 0,0
13.07.2019 00:00:00 27,3 16,0 23,5 30,8 22,7 15 8 19 10 WNW 1012,2 60 0 0,0
12.07.2019 23:00:00 27,5 20,6 24,8 31,2 22,7 6 3 11 6 NW 1011,8 46 0 0,0
12.07.2019 22:00:00 28,0 20,0 25,5 31,5 22,7 4 2 23 12 S 1011,7 16 0 0,0
12.07.2019 21:00:00 29,2 19,2 29,1 31,7 22,7 17 9 23 13 WSW 1011,3 52 55 0,0
12.07.2019 20:00:00 30,5 18,2 32,3 31,8 22,7 19 10 38 21 WSW 1011,2 35 60 0,0
12.07.2019 19:00:00 31,3 16,1 34,2 31,8 22,7 31 17 48 26 WSW 1011,2 26 60 0,0
12.07.2019 18:00:00 31,8 15,3 35,4 31,5 22,7 32 18 46 25 WSW 1011,3 24 60 0,0
12.07.2019 17:00:00 31,5 16,7 36,0 31,1 22,7 33 18 54 29 WSW 1011,7 26 60 0,0
12.07.2019 16:00:00 31,9 17,0 36,8 30,4 22,7 32 17 46 25 WSW 1012,0 31 60 0,0
12.07.2019 15:00:00 33,2 14,3 39,4 29,6 22,7 22 12 34 18 W 1012,5 33 60 0,0
12.07.2019 14:00:00 33,9 13,4 39,1 28,9 22,7 27 14 39 21 WNW 1012,9 33 60 0,0
12.07.2019 13:00:00 33,2 11,1 37,2 28,1 22,7 26 14 35 19 NW 1013,2 20 60 0,0
12.07.2019 12:00:00 31,3 14,4 33,2 27,7 22,7 21 11 38 20 W 1013,6 39 36 0,0
12.07.2019 11:00:00 30,1 11,6 32,9 27,3 22,7 25 13 38 20 WNW 1013,8 39 44 0,0
12.07.2019 10:00:00 29,5 12,4 29,8 27,2 22,7 27 15 38 21 NNW 1013,7 47 53 0,0
12.07.2019 09:00:00 27,2 12,0 25,5 27,2 22,7 10 5 16 9 WNW 1013,9 42 54 0,0
12.07.2019 08:00:00 25,2 11,7 24,3 27,4 22,7 12 7 20 11 WNW 1013,7 54 37 0,0
12.07.2019 07:00:00 24,0 11,7 22,6 27,6 22,7 11 6 20 11 WNW 1013,3 51 3 0,0
12.07.2019 06:00:00 23,5 10,5 21,6 28,0 22,7 13 7 19 10 NW 1012,9 60 0 0,0
12.07.2019 05:00:00 24,0 11,7 22,0 28,3 22,7 9 5 18 10 NNW 1012,5 60 0 0,0
12.07.2019 04:00:00 23,6 11,0 21,8 28,7 22,8 11 6 21 12 NW 1012,6 60 0 0,0
12.07.2019 03:00:00 24,8 10,6 19,4 29,1 22,8 10 5 17 9 NW 1012,6 60 0 0,0
12.07.2019 02:00:00 25,3 10,7 22,6 29,5 22,7 12 6 22 12 NNW 1012,8 60 0 0,0
12.07.2019 01:00:00 24,5 13,7 23,0 30,0 22,8 16 9 19 11 NW 1012,8 60 0 0,0
12.07.2019 00:00:00 24,9 19,0 21,7 30,4 22,8 9 5 15 8 NW 1012,7 42 0 0,0
11.07.2019 23:00:00 25,5 18,4 22,4 30,8 22,8 5 3 24 13 S 1012,9 39 0 0,0
11.07.2019 22:00:00 26,1 17,7 25,5 31,2 22,7 21 11 29 15 W 1012,7 50 0 0,0
11.07.2019 21:00:00 26,4 19,0 26,4 31,4 22,7 25 13 33 18 WSW 1012,2 45 20 0,0
11.07.2019 20:00:00 29,3 15,8 29,8 31,5 22,8 24 13 31 17 WSW 1011,7 41 47 0,0
11.07.2019 19:00:00 30,9 12,8 34,4 31,4 22,7 21 11 29 16 WSW 1011,5 33 60 0,0
11.07.2019 18:00:00 31,7 13,9 34,9 31,1 22,8 23 12 30 16 WSW 1011,5 27 58 0,0
11.07.2019 17:00:00 31,2 13,5 32,8 30,6 22,8 25 14 31 17 WSW 1011,8 30 55 0,0
11.07.2019 16:00:00 30,1 14,2 32,9 29,9 22,8 22 12 29 15 WSW 1012,2 33 53 0,0
11.07.2019 15:00:00 30,9 14,1 35,1 29,1 22,8 18 10 26 14 WSW 1012,3 31 58 0,0
11.07.2019 14:00:00 30,0 17,1 35,1 28,3 22,8 20 11 46 25 W 1012,7 30 48 0,0
11.07.2019 13:00:00 30,8 17,1 36,7 27,4 22,8 18 10 27 15 W 1012,5 20 60 0,0
11.07.2019 12:00:00 29,3 17,8 32,4 26,7 22,8 12 6 17 9 W 1012,9 29 54 0,0
11.07.2019 11:00:00 28,2 16,5 33,5 26,3 22,8 9 5 18 10 W 1012,9 20 58 0,0
11.07.2019 10:00:00 26,5 17,3 30,1 25,9 22,8 10 6 16 8 WNW 1013,3 29 60 0,0
11.07.2019 09:00:00 25,1 16,5 28,5 26,0 22,8 6 3 12 6 W 1013,0 30 60 0,0
11.07.2019 08:00:00 23,5 15,5 22,0 26,1 22,8 4 2 11 6 S 1012,9 33 48 0,0
11.07.2019 07:00:00 21,5 14,9 18,3 26,4 22,8 5 3 10 6 E 1012,3 17 14 0,0
11.07.2019 06:00:00 20,4 14,1 16,9 26,7 22,8 6 3 12 6 S 1012,1 20 0 0,0
11.07.2019 05:00:00 21,1 14,0 16,8 27,0 22,8 5 3 10 5 E 1011,9 37 0 0,0
11.07.2019 04:00:00 20,9 12,6 18,0 27,4 22,8 9 5 16 9 SSE 1012,1 42 0 0,0
11.07.2019 03:00:00 20,8 12,0 17,9 27,8 22,8 8 4 12 6 SSE 1012,4 48 0 0,0
11.07.2019 02:00:00 22,3 11,4 18,7 28,2 22,8 8 5 11 6 E 1012,3 60 0 0,0
11.07.2019 01:00:00 22,3 11,7 19,4 28,6 22,8 9 5 13 7 SE 1012,1 58 0 0,0
11.07.2019 00:00:00 23,5 10,9 19,7 29,0 22,8 5 3 9 5 W 1011,8 59 0 0,0
10.07.2019 23:00:00 26,5 9,8 23,4 29,3 22,8 6 3 30 16 NW 1011,7 60 0 0,0
10.07.2019 22:00:00 27,7 10,8 26,9 29,7 22,8 24 13 37 20 NW 1011,1 60 0 0,0
10.07.2019 21:00:00 29,2 12,6 29,2 29,9 22,8 28 15 37 20 NNW 1010,9 46 56 0,0
10.07.2019 20:00:00 30,5 11,5 32,5 29,9 22,9 25 13 42 23 NW 1010,6 36 60 0,0
10.07.2019 19:00:00 31,6 12,4 34,9 29,7 22,8 30 16 43 23 NW 1010,1 34 60 0,0
10.07.2019 18:00:00 32,2 12,4 37,4 29,3 22,8 25 13 43 23 NW 1010,3 30 60 0,0
10.07.2019 17:00:00 32,5 11,6 37,2 28,8 22,8 19 10 39 21 NW 1010,3 30 60 0,0
10.07.2019 16:00:00 31,9 14,1 37,3 28,0 22,8 27 15 37 20 W 1010,3 26 60 0,0
10.07.2019 15:00:00 31,2 13,5 37,1 27,2 22,8 27 14 37 20 W 1010,5 29 60 0,0
10.07.2019 14:00:00 30,5 11,9 36,4 26,4 22,8 25 14 42 23 WNW 1010,6 20 60 0,0
10.07.2019 13:00:00 30,0 12,4 34,0 25,7 22,8 27 14 37 20 WNW 1010,8 32 60 0,0
10.07.2019 12:00:00 28,3 12,2 31,7 25,2 22,8 29 16 43 23 NW 1010,8 29 60 0,0
10.07.2019 11:00:00 26,4 11,7 29,6 24,9 22,8 32 17 46 25 NW 1010,6 36 60 0,0
10.07.2019 10:00:00 24,8 11,4 26,6 24,8 22,8 33 18 52 28 NNW 1010,6 33 60 0,0
10.07.2019 09:00:00 23,2 10,6 24,2 25,0 22,8 37 20 57 31 NNW 1010,4 2,5 60 0,0
10.07.2019 08:00:00 21,8 9,3 21,8 25,2 22,8 22 12 39 21 NNW 1010,3 5 60 0,0
10.07.2019 07:00:00 21,3 9,2 20,6 25,5 22,9 26 14 39 21 NW 1010,0 6 28 0,0
10.07.2019 06:00:00 21,5 9,4 20,8 25,8 22,8 26 14 44 24 NW 1009,8 60 0 0,0
10.07.2019 05:00:00 21,9 10,1 21,0 26,1 22,8 24 13 37 20 NW 1009,9 60 0 0,0
10.07.2019 04:00:00 22,7 14,0 21,6 26,4 22,8 19 11 35 19 NNW 1009,9 26 0 0,0

tt = Température de l'air
td = dewpoint
tt 5cm = Température de l'air 5cm
tt -20cm = Température de l'air -20cm
tt -100cm = Température de l'air -100cm
ff = Vitesse du vent
fx = gusts
dd = Direction du vent
ppp = reduced air pressure
vv = visibility
sd = Ensoleillement
rr = Quantités de précipitations

stations d'obs. à proximité